Weather in Senda

Russia / Mari El Republic     56°47′07″N   49°54′49″E
temp.,
°C
wind,
m/s
gust,
m/s
humid.,
%
clouds,
%
prec.,
mm/h
press.,
hPa
HPBL,
m
9 december, thu
thu900:00−2s51395100 0.0 1025369
03:00−1s51397100 0.0 1025453
06:00−1s51196100 0.0 1024451
09:00−3s51294100 0.0 1024419
12:00−3s51293100 0.0 1023451
15:00−4s499499 0.0 1023302
18:00−4s4895100 0.0 1023291
21:00−3ssw3796100 0.1 1023245
10 december, fri
fri1000:00−3w2697100 0.5 1024256
03:00−10nnw499662 0.6 1026182
06:00−14nnw49945 0.0 1029155
09:00−16n49945 0.0 1031171
12:00−14n49925 0.0 1033220
15:00−16n39955 0.0 1035174
18:00−17nne410945 0.0 1037188
21:00−18nne39955 0.0 1038151
11 december, sat
sat1100:00−18nne39955 0.0 1039146
03:00−18nne38955 0.0 1040135
06:00−18ne38965 0.0 1041123
09:00−18ne37945 0.0 1042117
12:00−13ne35895 0.0 1042136
15:00−15nne24965 0.0 104345
18:00−16nne34975 0.0 104452
21:00−17ne24965 0.0 104445
12 december, sun
sun1200:00−17ne249213 0.0 104442
03:00−18ene119676 0.0 104513
06:00−18ene009660 0.0 10469
09:00−17se119453 0.0 104612
12:00−10sse128529 0.0 104554
15:00−13sse229280 0.0 104515
18:00−15s22935 0.0 104618
21:00−16s229215 0.0 104437
13 december, mon
mon1300:00−16ssw229185 0.0 104531
03:00−15ssw348917 0.0 104451
06:00−14ssw369062 0.0 104373
09:00−14ssw369222 0.0 104277
12:00−9ssw258686 0.0 1042106
15:00−12ssw358974 0.0 104158
18:00−12ssw388629 0.0 104191
21:00−12sw388463 0.0 1040107